• In Hungary
  • List of Countries
  • For 7 days
  • Water Temperature
  • Satellite Maps
  • Weather Map
  • News
  • Weather Widgets
  • user-avatar
    Login

    Hourly Weather Novaya Danilovka

    Today, 23 July, Monday

    Time Temperature Precipitation Wind Pressure Humidity
    00:00 +19°C° 0 mm 3 mps 736 mmHg 97%
    01:00 +18°C° 0 mm 3 mps 736 mmHg 98%
    02:00 +18°C° 0 mm 2 mps 736 mmHg 98%
    03:00 +18°C° 0 mm 3 mps 736 mmHg 98%
    04:00 +18°C° 0 mm 3 mps 736 mmHg 97%
    05:00 +18°C° 0 mm 4 mps 737 mmHg 97%
    06:00 +19°C° 0 mm 4 mps 737 mmHg 95%
    07:00 +19°C° 0 mm 4 mps 737 mmHg 94%
    08:00 +19°C° 0 mm 4 mps 737 mmHg 92%
    09:00 +20°C° 0 mm 4 mps 737 mmHg 90%
    10:00 +21°C° 0 mm 4 mps 737 mmHg 88%
    11:00 +21°C° 0 mm 4 mps 737 mmHg 85%
    12:00 +22°C° 0.4 mm 4 mps 737 mmHg 84%
    13:00 +23°C° 0.4 mm 4 mps 737 mmHg 82%
    14:00 +25°C° 0.4 mm 4 mps 737 mmHg 80%
    15:00 +23°C° 0.5 mm 4 mps 737 mmHg 82%
    16:00 +23°C° 0.5 mm 4 mps 737 mmHg 84%
    17:00 +22°C° 0.5 mm 4 mps 737 mmHg 86%
    18:00 +21°C° 0.1 mm 4 mps 737 mmHg 88%
    19:00 +20°C° 0.1 mm 3 mps 737 mmHg 91%
    20:00 +19°C° 0.1 mm 3 mps 737 mmHg 94%
    21:00 +19°C° 0 mm 3 mps 737 mmHg 94%
    22:00 +18°C° 0 mm 3 mps 737 mmHg 95%
    23:00 +18°C° 0 mm 3 mps 737 mmHg 95%

    Tomorrow, 24 July, Tuesday

    Time Temperature Precipitation Wind Pressure Humidity
    00:00 +18°C° 0 mm 3 mps 737 mmHg 96%
    01:00 +18°C° 0 mm 3 mps 737 mmHg 97%
    02:00 +17°C° 0 mm 3 mps 737 mmHg 97%
    03:00 +18°C° 0 mm 3 mps 737 mmHg 97%
    04:00 +18°C° 0 mm 4 mps 738 mmHg 96%
    05:00 +18°C° 0 mm 4 mps 738 mmHg 96%
    06:00 +18°C° 0 mm 4 mps 738 mmHg 95%
    07:00 +18°C° 0 mm 4 mps 738 mmHg 94%
    08:00 +18°C° 0 mm 4 mps 738 mmHg 93%
    09:00 +19°C° 0 mm 4 mps 738 mmHg 91%
    10:00 +19°C° 0 mm 4 mps 738 mmHg 90%
    11:00 +20°C° 0 mm 4 mps 739 mmHg 89%
    12:00 +20°C° 0 mm 4 mps 739 mmHg 88%
    13:00 +21°C° 0 mm 4 mps 739 mmHg 87%
    14:00 +21°C° 0 mm 4 mps 739 mmHg 86%
    15:00 +21°C° 0 mm 4 mps 739 mmHg 86%
    16:00 +22°C° 0 mm 3 mps 739 mmHg 86%
    17:00 +22°C° 0 mm 3 mps 739 mmHg 86%
    18:00 +21°C° 0.1 mm 3 mps 739 mmHg 89%
    19:00 +21°C° 0.1 mm 3 mps 739 mmHg 91%
    20:00 +20°C° 0.1 mm 3 mps 739 mmHg 94%
    21:00 +19°C° 0.2 mm 3 mps 739 mmHg 95%
    22:00 +19°C° 0.2 mm 3 mps 739 mmHg 96%
    23:00 +18°C° 0.2 mm 2 mps 739 mmHg 97%

    Day after tomorrow, 25 July, Wednesday

    Time Temperature Precipitation Wind Pressure Humidity
    00:00 +18°C° 0 mm 2 mps 739 mmHg 98%
    01:00 +18°C° 0 mm 2 mps 739 mmHg 98%
    02:00 +18°C° 0 mm 2 mps 739 mmHg 98%
    03:00 +18°C° 0 mm 2 mps 739 mmHg 98%
    04:00 +18°C° 0 mm 2 mps 739 mmHg 98%
    05:00 +18°C° 0 mm 2 mps 739 mmHg 98%
    06:00 +19°C° 0 mm 2 mps 740 mmHg 95%
    07:00 +21°C° 0 mm 2 mps 740 mmHg 92%
    08:00 +23°C° 0 mm 2 mps 740 mmHg 88%
    09:00 +24°C° 0.9 mm 3 mps 740 mmHg 85%
    10:00 +25°C° 0.9 mm 3 mps 740 mmHg 82%
    11:00 +26°C° 0.9 mm 3 mps 740 mmHg 79%
    12:00 +27°C° 0.7 mm 4 mps 740 mmHg 78%
    13:00 +27°C° 0.7 mm 4 mps 740 mmHg 76%
    14:00 +27°C° 0.7 mm 4 mps 740 mmHg 75%
    15:00 +27°C° 0.8 mm 4 mps 740 mmHg 77%
    16:00 +26°C° 0.8 mm 3 mps 740 mmHg 79%
    17:00 +26°C° 0.8 mm 3 mps 740 mmHg 81%
    18:00 +25°C° 0.1 mm 3 mps 741 mmHg 84%
    19:00 +22°C° 0.1 mm 3 mps 741 mmHg 87%
    20:00 +21°C° 0.1 mm 3 mps 741 mmHg 89%
    21:00 +20°C° 0 mm 3 mps 741 mmHg 91%
    22:00 +19°C° 0 mm 3 mps 742 mmHg 92%
    23:00 +18°C° 0 mm 3 mps 742 mmHg 94%

    26 July, Thursday

    Time Temperature Precipitation Wind Pressure Humidity
    00:00 +17°C° 0 mm 2 mps 742 mmHg 95%
    01:00 +17°C° 0 mm 2 mps 742 mmHg 95%
    02:00 +16°C° 0 mm 2 mps 742 mmHg 96%
    03:00 +16°C° 0 mm 2 mps 742 mmHg 96%
    04:00 +16°C° 0 mm 2 mps 743 mmHg 96%
    05:00 +16°C° 0 mm 2 mps 743 mmHg 96%
    06:00 +17°C° 0 mm 2 mps 743 mmHg 92%
    07:00 +19°C° 0 mm 2 mps 743 mmHg 87%
    08:00 +20°C° 0 mm 3 mps 743 mmHg 82%
    09:00 +21°C° 0 mm 3 mps 743 mmHg 77%
    10:00 +24°C° 0 mm 3 mps 743 mmHg 73%
    11:00 +25°C° 0 mm 3 mps 743 mmHg 69%
    12:00 +25°C° 0 mm 3 mps 743 mmHg 68%
    13:00 +26°C° 0 mm 3 mps 743 mmHg 67%
    14:00 +27°C° 0 mm 3 mps 743 mmHg 66%
    15:00 +27°C° 0 mm 3 mps 743 mmHg 68%
    16:00 +27°C° 0 mm 3 mps 743 mmHg 71%
    17:00 +27°C° 0 mm 3 mps 743 mmHg 73%
    18:00 +25°C° 0 mm 2 mps 743 mmHg 79%
    19:00 +24°C° 0 mm 2 mps 743 mmHg 85%
    20:00 +21°C° 0 mm 2 mps 743 mmHg 91%
    21:00 +21°C° 0.1 mm 2 mps 743 mmHg 92%
    22:00 +20°C° 0.1 mm 2 mps 743 mmHg 94%
    23:00 +20°C° 0.1 mm 2 mps 743 mmHg 96%

    27 July, Friday

    Time Temperature Precipitation Wind Pressure Humidity
    00:00 +19°C° 0 mm 2 mps 743 mmHg 96%
    01:00 +19°C° 0 mm 2 mps 743 mmHg 97%
    02:00 +19°C° 0 mm 2 mps 743 mmHg 97%
    03:00 +19°C° 0 mm 2 mps 743 mmHg 97%
    04:00 +19°C° 0 mm 2 mps 743 mmHg 97%
    05:00 +19°C° 0 mm 2 mps 743 mmHg 98%
    06:00 +21°C° 0 mm 3 mps 743 mmHg 94%
    07:00 +22°C° 0 mm 3 mps 743 mmHg 91%
    08:00 +24°C° 0 mm 3 mps 743 mmHg 87%
    09:00 +26°C° 0.1 mm 3 mps 743 mmHg 82%
    10:00 +28°C° 0.1 mm 4 mps 742 mmHg 76%
    11:00 +29°C° 0.1 mm 4 mps 742 mmHg 71%
    12:00 +30°C° 1.6 mm 3 mps 742 mmHg 70%
    13:00 +30°C° 1.6 mm 3 mps 742 mmHg 69%
    14:00 +30°C° 1.6 mm 3 mps 742 mmHg 67%
    15:00 +30°C° 1.2 mm 2 mps 742 mmHg 72%
    16:00 +29°C° 1.2 mm 2 mps 742 mmHg 76%
    17:00 +28°C° 1.2 mm 2 mps 742 mmHg 80%
    18:00 +27°C° 1.4 mm 2 mps 742 mmHg 82%
    19:00 +25°C° 1.4 mm 2 mps 742 mmHg 84%
    20:00 +24°C° 1.4 mm 1 mps 742 mmHg 85%
    21:00 +24°C° 0.4 mm 2 mps 742 mmHg 87%
    22:00 +23°C° 0.4 mm 2 mps 743 mmHg 89%
    23:00 +21°C° 0.4 mm 2 mps 743 mmHg 90%

    28 July, Saturday

    Time Temperature Precipitation Wind Pressure Humidity
    00:00 +21°C° 0 mm 2 mps 742 mmHg 91%
    01:00 +21°C° 0 mm 2 mps 742 mmHg 91%
    02:00 +20°C° 0 mm 2 mps 742 mmHg 91%
    03:00 +20°C° 0 mm 2 mps 742 mmHg 91%
    04:00 +20°C° 0 mm 2 mps 742 mmHg 92%
    05:00 +20°C° 0 mm 2 mps 742 mmHg 92%
    06:00 +23°C° 0 mm 2 mps 742 mmHg 89%
    07:00 +24°C° 0 mm 3 mps 742 mmHg 86%
    08:00 +25°C° 0 mm 3 mps 742 mmHg 83%
    09:00 +26°C° 1.2 mm 3 mps 742 mmHg 78%
    10:00 +28°C° 1.2 mm 3 mps 742 mmHg 73%
    11:00 +29°C° 1.2 mm 3 mps 742 mmHg 68%
    12:00 +29°C° 1.1 mm 3 mps 742 mmHg 68%
    13:00 +29°C° 1.1 mm 3 mps 742 mmHg 68%
    14:00 +29°C° 1.1 mm 2 mps 742 mmHg 67%
    15:00 +29°C° 0.9 mm 3 mps 742 mmHg 72%
    16:00 +28°C° 0.9 mm 3 mps 742 mmHg 76%
    17:00 +27°C° 0.9 mm 4 mps 742 mmHg 80%
    18:00 +26°C° 0.3 mm 3 mps 742 mmHg 84%
    19:00 +25°C° 0.3 mm 3 mps 742 mmHg 87%
    20:00 +22°C° 0.3 mm 3 mps 742 mmHg 90%
    21:00 +22°C° 0 mm 3 mps 742 mmHg 92%
    22:00 +21°C° 0 mm 3 mps 742 mmHg 93%
    23:00 +21°C° 0 mm 3 mps 742 mmHg 94%
    Show more